<?xml version="1.0"?>
<gpx xmlns="http://www.topografix.com/GPX/1/1" xmlns:xsi="http://www.w3.org/2001/XMLSchema-instance" version="1.1" creator="GPX RubyGem 1.0.0 -- http://dougfales.github.io/gpx/" xsi:schemaLocation="http://www.topografix.com/GPX/1/1 http://www.topografix.com/GPX/1/1/gpx.xsd">
  <metadata>
    <name/>
    <time>2026-05-08T06:19:39+00:00</time>
    <bound minlat="90.0" minlon="180.0" maxlat="-90.0" maxlon="-180.0"/>
  </metadata>
  <trk>
    <name/>
    <trkseg>
      <trkpt lat="45.91218" lon="14.543513">
        <time>1970-01-01T00:00:00+00:00</time>
        <ele>646.0</ele>
      </trkpt>
      <trkpt lat="45.912138" lon="14.543486">
        <time>1970-01-01T00:00:00+00:00</time>
        <ele>646.0</ele>
      </trkpt>
      <trkpt lat="45.912179" lon="14.543315">
        <time>1970-01-01T00:00:00+00:00</time>
        <ele>646.0</ele>
      </trkpt>
      <trkpt lat="45.912206" lon="14.543239">
        <time>1970-01-01T00:00:00+00:00</time>
        <ele>645.0</ele>
      </trkpt>
      <trkpt lat="45.913086" lon="14.542632">
        <time>1970-01-01T00:00:00+00:00</time>
        <ele>634.0</ele>
      </trkpt>
      <trkpt lat="45.913832" lon="14.542096">
        <time>1970-01-01T00:00:00+00:00</time>
        <ele>624.0</ele>
      </trkpt>
      <trkpt lat="45.914054" lon="14.541944">
        <time>1970-01-01T00:00:00+00:00</time>
        <ele>621.0</ele>
      </trkpt>
      <trkpt lat="45.914315" lon="14.541796">
        <time>1970-01-01T00:00:00+00:00</time>
        <ele>619.0</ele>
      </trkpt>
      <trkpt lat="45.914799" lon="14.541563">
        <time>1970-01-01T00:00:00+00:00</time>
        <ele>614.0</ele>
      </trkpt>
      <trkpt lat="45.914986" lon="14.541448">
        <time>1970-01-01T00:00:00+00:00</time>
        <ele>612.0</ele>
      </trkpt>
      <trkpt lat="45.915281" lon="14.541198">
        <time>1970-01-01T00:00:00+00:00</time>
        <ele>609.0</ele>
      </trkpt>
      <trkpt lat="45.915431" lon="14.540984">
        <time>1970-01-01T00:00:00+00:00</time>
        <ele>609.0</ele>
      </trkpt>
      <trkpt lat="45.915535" lon="14.540791">
        <time>1970-01-01T00:00:00+00:00</time>
        <ele>608.0</ele>
      </trkpt>
      <trkpt lat="45.915632" lon="14.540536">
        <time>1970-01-01T00:00:00+00:00</time>
        <ele>607.0</ele>
      </trkpt>
      <trkpt lat="45.915691" lon="14.540313">
        <time>1970-01-01T00:00:00+00:00</time>
        <ele>606.0</ele>
      </trkpt>
      <trkpt lat="45.915847" lon="14.539489">
        <time>1970-01-01T00:00:00+00:00</time>
        <ele>603.0</ele>
      </trkpt>
      <trkpt lat="45.915869" lon="14.539356">
        <time>1970-01-01T00:00:00+00:00</time>
        <ele>603.0</ele>
      </trkpt>
      <trkpt lat="45.915922" lon="14.539051">
        <time>1970-01-01T00:00:00+00:00</time>
        <ele>601.0</ele>
      </trkpt>
      <trkpt lat="45.915971" lon="14.538804">
        <time>1970-01-01T00:00:00+00:00</time>
        <ele>599.0</ele>
      </trkpt>
      <trkpt lat="45.916038" lon="14.538524">
        <time>1970-01-01T00:00:00+00:00</time>
        <ele>597.0</ele>
      </trkpt>
      <trkpt lat="45.916161" lon="14.538222">
        <time>1970-01-01T00:00:00+00:00</time>
        <ele>595.0</ele>
      </trkpt>
      <trkpt lat="45.916239" lon="14.538098">
        <time>1970-01-01T00:00:00+00:00</time>
        <ele>594.0</ele>
      </trkpt>
      <trkpt lat="45.916362" lon="14.537948">
        <time>1970-01-01T00:00:00+00:00</time>
        <ele>593.0</ele>
      </trkpt>
      <trkpt lat="45.917215" lon="14.537204">
        <time>1970-01-01T00:00:00+00:00</time>
        <ele>581.0</ele>
      </trkpt>
      <trkpt lat="45.917507" lon="14.537025">
        <time>1970-01-01T00:00:00+00:00</time>
        <ele>578.0</ele>
      </trkpt>
      <trkpt lat="45.917647" lon="14.53699">
        <time>1970-01-01T00:00:00+00:00</time>
        <ele>577.0</ele>
      </trkpt>
      <trkpt lat="45.917923" lon="14.536962">
        <time>1970-01-01T00:00:00+00:00</time>
        <ele>576.0</ele>
      </trkpt>
      <trkpt lat="45.918073" lon="14.53699">
        <time>1970-01-01T00:00:00+00:00</time>
        <ele>574.0</ele>
      </trkpt>
      <trkpt lat="45.918355" lon="14.537104">
        <time>1970-01-01T00:00:00+00:00</time>
        <ele>569.0</ele>
      </trkpt>
      <trkpt lat="45.918506" lon="14.53724">
        <time>1970-01-01T00:00:00+00:00</time>
        <ele>566.0</ele>
      </trkpt>
      <trkpt lat="45.91875" lon="14.537504">
        <time>1970-01-01T00:00:00+00:00</time>
        <ele>562.0</ele>
      </trkpt>
      <trkpt lat="45.918717" lon="14.537161">
        <time>1970-01-01T00:00:00+00:00</time>
        <ele>563.0</ele>
      </trkpt>
      <trkpt lat="45.918717" lon="14.536628">
        <time>1970-01-01T00:00:00+00:00</time>
        <ele>564.0</ele>
      </trkpt>
      <trkpt lat="45.91869" lon="14.536447">
        <time>1970-01-01T00:00:00+00:00</time>
        <ele>563.0</ele>
      </trkpt>
      <trkpt lat="45.918654" lon="14.536328">
        <time>1970-01-01T00:00:00+00:00</time>
        <ele>564.0</ele>
      </trkpt>
      <trkpt lat="45.918603" lon="14.536226">
        <time>1970-01-01T00:00:00+00:00</time>
        <ele>563.0</ele>
      </trkpt>
      <trkpt lat="45.918296" lon="14.535858">
        <time>1970-01-01T00:00:00+00:00</time>
        <ele>563.0</ele>
      </trkpt>
      <trkpt lat="45.918259" lon="14.53578">
        <time>1970-01-01T00:00:00+00:00</time>
        <ele>563.0</ele>
      </trkpt>
      <trkpt lat="45.918231" lon="14.535602">
        <time>1970-01-01T00:00:00+00:00</time>
        <ele>562.0</ele>
      </trkpt>
      <trkpt lat="45.918225" lon="14.535347">
        <time>1970-01-01T00:00:00+00:00</time>
        <ele>561.0</ele>
      </trkpt>
      <trkpt lat="45.918204" lon="14.534877">
        <time>1970-01-01T00:00:00+00:00</time>
        <ele>561.0</ele>
      </trkpt>
      <trkpt lat="45.918186" lon="14.534294">
        <time>1970-01-01T00:00:00+00:00</time>
        <ele>561.0</ele>
      </trkpt>
      <trkpt lat="45.918194" lon="14.533893">
        <time>1970-01-01T00:00:00+00:00</time>
        <ele>561.0</ele>
      </trkpt>
      <trkpt lat="45.91821" lon="14.53374">
        <time>1970-01-01T00:00:00+00:00</time>
        <ele>561.0</ele>
      </trkpt>
      <trkpt lat="45.918237" lon="14.533419">
        <time>1970-01-01T00:00:00+00:00</time>
        <ele>559.0</ele>
      </trkpt>
      <trkpt lat="45.91824" lon="14.533361">
        <time>1970-01-01T00:00:00+00:00</time>
        <ele>559.0</ele>
      </trkpt>
      <trkpt lat="45.91822" lon="14.533174">
        <time>1970-01-01T00:00:00+00:00</time>
        <ele>559.0</ele>
      </trkpt>
      <trkpt lat="45.918007" lon="14.532592">
        <time>1970-01-01T00:00:00+00:00</time>
        <ele>560.0</ele>
      </trkpt>
      <trkpt lat="45.917993" lon="14.532555">
        <time>1970-01-01T00:00:00+00:00</time>
        <ele>560.0</ele>
      </trkpt>
      <trkpt lat="45.917895" lon="14.532302">
        <time>1970-01-01T00:00:00+00:00</time>
        <ele>564.0</ele>
      </trkpt>
      <trkpt lat="45.917526" lon="14.531241">
        <time>1970-01-01T00:00:00+00:00</time>
        <ele>573.0</ele>
      </trkpt>
      <trkpt lat="45.91743" lon="14.530863">
        <time>1970-01-01T00:00:00+00:00</time>
        <ele>574.0</ele>
      </trkpt>
      <trkpt lat="45.917398" lon="14.530795">
        <time>1970-01-01T00:00:00+00:00</time>
        <ele>574.0</ele>
      </trkpt>
      <trkpt lat="45.917289" lon="14.530681">
        <time>1970-01-01T00:00:00+00:00</time>
        <ele>573.0</ele>
      </trkpt>
      <trkpt lat="45.917194" lon="14.53064">
        <time>1970-01-01T00:00:00+00:00</time>
        <ele>572.0</ele>
      </trkpt>
      <trkpt lat="45.917057" lon="14.530545">
        <time>1970-01-01T00:00:00+00:00</time>
        <ele>571.0</ele>
      </trkpt>
      <trkpt lat="45.916925" lon="14.530351">
        <time>1970-01-01T00:00:00+00:00</time>
        <ele>570.0</ele>
      </trkpt>
      <trkpt lat="45.916869" lon="14.530172">
        <time>1970-01-01T00:00:00+00:00</time>
        <ele>570.0</ele>
      </trkpt>
      <trkpt lat="45.91679" lon="14.529737">
        <time>1970-01-01T00:00:00+00:00</time>
        <ele>572.0</ele>
      </trkpt>
      <trkpt lat="45.916741" lon="14.529606">
        <time>1970-01-01T00:00:00+00:00</time>
        <ele>571.0</ele>
      </trkpt>
      <trkpt lat="45.916578" lon="14.529185">
        <time>1970-01-01T00:00:00+00:00</time>
        <ele>569.0</ele>
      </trkpt>
      <trkpt lat="45.916387" lon="14.528674">
        <time>1970-01-01T00:00:00+00:00</time>
        <ele>570.0</ele>
      </trkpt>
      <trkpt lat="45.91632" lon="14.528413">
        <time>1970-01-01T00:00:00+00:00</time>
        <ele>570.0</ele>
      </trkpt>
      <trkpt lat="45.916245" lon="14.528019">
        <time>1970-01-01T00:00:00+00:00</time>
        <ele>572.0</ele>
      </trkpt>
      <trkpt lat="45.916077" lon="14.527274">
        <time>1970-01-01T00:00:00+00:00</time>
        <ele>574.0</ele>
      </trkpt>
      <trkpt lat="45.915982" lon="14.526755">
        <time>1970-01-01T00:00:00+00:00</time>
        <ele>576.0</ele>
      </trkpt>
      <trkpt lat="45.915774" lon="14.525313">
        <time>1970-01-01T00:00:00+00:00</time>
        <ele>581.0</ele>
      </trkpt>
      <trkpt lat="45.91568" lon="14.524962">
        <time>1970-01-01T00:00:00+00:00</time>
        <ele>581.0</ele>
      </trkpt>
      <trkpt lat="45.91561" lon="14.524897">
        <time>1970-01-01T00:00:00+00:00</time>
        <ele>582.0</ele>
      </trkpt>
      <trkpt lat="45.915424" lon="14.524786">
        <time>1970-01-01T00:00:00+00:00</time>
        <ele>581.0</ele>
      </trkpt>
      <trkpt lat="45.915308" lon="14.524594">
        <time>1970-01-01T00:00:00+00:00</time>
        <ele>580.0</ele>
      </trkpt>
      <trkpt lat="45.915289" lon="14.524425">
        <time>1970-01-01T00:00:00+00:00</time>
        <ele>579.0</ele>
      </trkpt>
      <trkpt lat="45.91529" lon="14.524005">
        <time>1970-01-01T00:00:00+00:00</time>
        <ele>577.0</ele>
      </trkpt>
      <trkpt lat="45.915243" lon="14.52374">
        <time>1970-01-01T00:00:00+00:00</time>
        <ele>577.0</ele>
      </trkpt>
      <trkpt lat="45.915152" lon="14.523576">
        <time>1970-01-01T00:00:00+00:00</time>
        <ele>578.0</ele>
      </trkpt>
      <trkpt lat="45.915023" lon="14.523211">
        <time>1970-01-01T00:00:00+00:00</time>
        <ele>582.0</ele>
      </trkpt>
      <trkpt lat="45.914997" lon="14.523017">
        <time>1970-01-01T00:00:00+00:00</time>
        <ele>586.0</ele>
      </trkpt>
      <trkpt lat="45.915019" lon="14.522539">
        <time>1970-01-01T00:00:00+00:00</time>
        <ele>600.0</ele>
      </trkpt>
      <trkpt lat="45.91508" lon="14.52218">
        <time>1970-01-01T00:00:00+00:00</time>
        <ele>603.0</ele>
      </trkpt>
      <trkpt lat="45.91508" lon="14.522073">
        <time>1970-01-01T00:00:00+00:00</time>
        <ele>603.0</ele>
      </trkpt>
      <trkpt lat="45.91505" lon="14.521941">
        <time>1970-01-01T00:00:00+00:00</time>
        <ele>604.0</ele>
      </trkpt>
      <trkpt lat="45.914993" lon="14.521834">
        <time>1970-01-01T00:00:00+00:00</time>
        <ele>606.0</ele>
      </trkpt>
      <trkpt lat="45.91483" lon="14.521673">
        <time>1970-01-01T00:00:00+00:00</time>
        <ele>609.0</ele>
      </trkpt>
      <trkpt lat="45.914569" lon="14.521542">
        <time>1970-01-01T00:00:00+00:00</time>
        <ele>616.0</ele>
      </trkpt>
      <trkpt lat="45.914429" lon="14.521501">
        <time>1970-01-01T00:00:00+00:00</time>
        <ele>618.0</ele>
      </trkpt>
      <trkpt lat="45.913887" lon="14.521643">
        <time>1970-01-01T00:00:00+00:00</time>
        <ele>621.0</ele>
      </trkpt>
      <trkpt lat="45.913767" lon="14.521643">
        <time>1970-01-01T00:00:00+00:00</time>
        <ele>622.0</ele>
      </trkpt>
      <trkpt lat="45.913635" lon="14.521554">
        <time>1970-01-01T00:00:00+00:00</time>
        <ele>624.0</ele>
      </trkpt>
      <trkpt lat="45.913408" lon="14.521352">
        <time>1970-01-01T00:00:00+00:00</time>
        <ele>629.0</ele>
      </trkpt>
      <trkpt lat="45.913296" lon="14.521209">
        <time>1970-01-01T00:00:00+00:00</time>
        <ele>632.0</ele>
      </trkpt>
      <trkpt lat="45.913205" lon="14.521132">
        <time>1970-01-01T00:00:00+00:00</time>
        <ele>634.0</ele>
      </trkpt>
      <trkpt lat="45.913069" lon="14.521156">
        <time>1970-01-01T00:00:00+00:00</time>
        <ele>637.0</ele>
      </trkpt>
      <trkpt lat="45.912899" lon="14.521114">
        <time>1970-01-01T00:00:00+00:00</time>
        <ele>640.0</ele>
      </trkpt>
      <trkpt lat="45.912684" lon="14.52118">
        <time>1970-01-01T00:00:00+00:00</time>
        <ele>642.0</ele>
      </trkpt>
      <trkpt lat="45.912573" lon="14.521174">
        <time>1970-01-01T00:00:00+00:00</time>
        <ele>644.0</ele>
      </trkpt>
      <trkpt lat="45.912196" lon="14.521055">
        <time>1970-01-01T00:00:00+00:00</time>
        <ele>653.0</ele>
      </trkpt>
      <trkpt lat="45.912089" lon="14.521061">
        <time>1970-01-01T00:00:00+00:00</time>
        <ele>657.0</ele>
      </trkpt>
      <trkpt lat="45.911961" lon="14.52118">
        <time>1970-01-01T00:00:00+00:00</time>
        <ele>660.0</ele>
      </trkpt>
      <trkpt lat="45.911671" lon="14.521512">
        <time>1970-01-01T00:00:00+00:00</time>
        <ele>660.0</ele>
      </trkpt>
      <trkpt lat="45.911444" lon="14.521607">
        <time>1970-01-01T00:00:00+00:00</time>
        <ele>667.0</ele>
      </trkpt>
      <trkpt lat="45.911336" lon="14.521637">
        <time>1970-01-01T00:00:00+00:00</time>
        <ele>670.0</ele>
      </trkpt>
      <trkpt lat="45.911221" lon="14.521619">
        <time>1970-01-01T00:00:00+00:00</time>
        <ele>673.0</ele>
      </trkpt>
      <trkpt lat="45.911109" lon="14.521697">
        <time>1970-01-01T00:00:00+00:00</time>
        <ele>676.0</ele>
      </trkpt>
      <trkpt lat="45.910716" lon="14.521631">
        <time>1970-01-01T00:00:00+00:00</time>
        <ele>684.0</ele>
      </trkpt>
      <trkpt lat="45.910625" lon="14.521649">
        <time>1970-01-01T00:00:00+00:00</time>
        <ele>684.0</ele>
      </trkpt>
      <trkpt lat="45.910481" lon="14.521625">
        <time>1970-01-01T00:00:00+00:00</time>
        <ele>686.0</ele>
      </trkpt>
      <trkpt lat="45.910348" lon="14.521548">
        <time>1970-01-01T00:00:00+00:00</time>
        <ele>687.0</ele>
      </trkpt>
      <trkpt lat="45.910257" lon="14.521453">
        <time>1970-01-01T00:00:00+00:00</time>
        <ele>688.0</ele>
      </trkpt>
      <trkpt lat="45.910204" lon="14.521328">
        <time>1970-01-01T00:00:00+00:00</time>
        <ele>690.0</ele>
      </trkpt>
      <trkpt lat="45.910146" lon="14.520877">
        <time>1970-01-01T00:00:00+00:00</time>
        <ele>697.0</ele>
      </trkpt>
      <trkpt lat="45.910171" lon="14.520776">
        <time>1970-01-01T00:00:00+00:00</time>
        <ele>698.0</ele>
      </trkpt>
      <trkpt lat="45.910319" lon="14.520568">
        <time>1970-01-01T00:00:00+00:00</time>
        <ele>701.0</ele>
      </trkpt>
      <trkpt lat="45.91041" lon="14.520193">
        <time>1970-01-01T00:00:00+00:00</time>
        <ele>705.0</ele>
      </trkpt>
      <trkpt lat="45.910284" lon="14.519729">
        <time>1970-01-01T00:00:00+00:00</time>
        <ele>707.0</ele>
      </trkpt>
      <trkpt lat="45.910214" lon="14.519563">
        <time>1970-01-01T00:00:00+00:00</time>
        <ele>709.0</ele>
      </trkpt>
      <trkpt lat="45.910245" lon="14.51932">
        <time>1970-01-01T00:00:00+00:00</time>
        <ele>712.0</ele>
      </trkpt>
      <trkpt lat="45.910348" lon="14.519136">
        <time>1970-01-01T00:00:00+00:00</time>
        <ele>714.0</ele>
      </trkpt>
      <trkpt lat="45.910489" lon="14.518993">
        <time>1970-01-01T00:00:00+00:00</time>
        <ele>712.0</ele>
      </trkpt>
      <trkpt lat="45.910563" lon="14.518827">
        <time>1970-01-01T00:00:00+00:00</time>
        <ele>712.0</ele>
      </trkpt>
      <trkpt lat="45.910576" lon="14.518672">
        <time>1970-01-01T00:00:00+00:00</time>
        <ele>712.0</ele>
      </trkpt>
      <trkpt lat="45.910633" lon="14.518444">
        <time>1970-01-01T00:00:00+00:00</time>
        <ele>714.0</ele>
      </trkpt>
      <trkpt lat="45.910849" lon="14.518307">
        <time>1970-01-01T00:00:00+00:00</time>
        <ele>714.0</ele>
      </trkpt>
      <trkpt lat="45.911093" lon="14.518087">
        <time>1970-01-01T00:00:00+00:00</time>
        <ele>715.0</ele>
      </trkpt>
      <trkpt lat="45.911232" lon="14.517777">
        <time>1970-01-01T00:00:00+00:00</time>
        <ele>717.0</ele>
      </trkpt>
      <trkpt lat="45.911403" lon="14.51749">
        <time>1970-01-01T00:00:00+00:00</time>
        <ele>723.0</ele>
      </trkpt>
      <trkpt lat="45.912529" lon="14.516439">
        <time>1970-01-01T00:00:00+00:00</time>
        <ele>747.0</ele>
      </trkpt>
      <trkpt lat="45.912559" lon="14.516364">
        <time>1970-01-01T00:00:00+00:00</time>
        <ele>748.0</ele>
      </trkpt>
      <trkpt lat="45.912667" lon="14.516086">
        <time>1970-01-01T00:00:00+00:00</time>
        <ele>754.0</ele>
      </trkpt>
      <trkpt lat="45.913305" lon="14.515538">
        <time>1970-01-01T00:00:00+00:00</time>
        <ele>763.0</ele>
      </trkpt>
      <trkpt lat="45.913289" lon="14.515343">
        <time>1970-01-01T00:00:00+00:00</time>
        <ele>764.0</ele>
      </trkpt>
      <trkpt lat="45.913244" lon="14.515284">
        <time>1970-01-01T00:00:00+00:00</time>
        <ele>764.0</ele>
      </trkpt>
      <trkpt lat="45.913152" lon="14.515219">
        <time>1970-01-01T00:00:00+00:00</time>
        <ele>765.0</ele>
      </trkpt>
      <trkpt lat="45.913128" lon="14.515139">
        <time>1970-01-01T00:00:00+00:00</time>
        <ele>766.0</ele>
      </trkpt>
      <trkpt lat="45.913124" lon="14.515">
        <time>1970-01-01T00:00:00+00:00</time>
        <ele>767.0</ele>
      </trkpt>
      <trkpt lat="45.913223" lon="14.514661">
        <time>1970-01-01T00:00:00+00:00</time>
        <ele>775.0</ele>
      </trkpt>
      <trkpt lat="45.91325" lon="14.514386">
        <time>1970-01-01T00:00:00+00:00</time>
        <ele>779.0</ele>
      </trkpt>
      <trkpt lat="45.91325" lon="14.514386">
        <time>1970-01-01T00:00:00+00:00</time>
        <ele>779.0</ele>
      </trkpt>
      <trkpt lat="45.913223" lon="14.514661">
        <time>1970-01-01T00:00:00+00:00</time>
        <ele>775.0</ele>
      </trkpt>
      <trkpt lat="45.913124" lon="14.515">
        <time>1970-01-01T00:00:00+00:00</time>
        <ele>767.0</ele>
      </trkpt>
      <trkpt lat="45.913128" lon="14.515139">
        <time>1970-01-01T00:00:00+00:00</time>
        <ele>766.0</ele>
      </trkpt>
      <trkpt lat="45.913152" lon="14.515219">
        <time>1970-01-01T00:00:00+00:00</time>
        <ele>765.0</ele>
      </trkpt>
      <trkpt lat="45.913244" lon="14.515284">
        <time>1970-01-01T00:00:00+00:00</time>
        <ele>764.0</ele>
      </trkpt>
      <trkpt lat="45.913289" lon="14.515343">
        <time>1970-01-01T00:00:00+00:00</time>
        <ele>764.0</ele>
      </trkpt>
      <trkpt lat="45.913305" lon="14.515538">
        <time>1970-01-01T00:00:00+00:00</time>
        <ele>763.0</ele>
      </trkpt>
      <trkpt lat="45.912667" lon="14.516086">
        <time>1970-01-01T00:00:00+00:00</time>
        <ele>754.0</ele>
      </trkpt>
      <trkpt lat="45.912559" lon="14.516364">
        <time>1970-01-01T00:00:00+00:00</time>
        <ele>748.0</ele>
      </trkpt>
      <trkpt lat="45.912529" lon="14.516439">
        <time>1970-01-01T00:00:00+00:00</time>
        <ele>747.0</ele>
      </trkpt>
      <trkpt lat="45.911403" lon="14.51749">
        <time>1970-01-01T00:00:00+00:00</time>
        <ele>723.0</ele>
      </trkpt>
      <trkpt lat="45.911232" lon="14.517777">
        <time>1970-01-01T00:00:00+00:00</time>
        <ele>717.0</ele>
      </trkpt>
      <trkpt lat="45.911093" lon="14.518087">
        <time>1970-01-01T00:00:00+00:00</time>
        <ele>715.0</ele>
      </trkpt>
      <trkpt lat="45.910849" lon="14.518307">
        <time>1970-01-01T00:00:00+00:00</time>
        <ele>714.0</ele>
      </trkpt>
      <trkpt lat="45.910633" lon="14.518444">
        <time>1970-01-01T00:00:00+00:00</time>
        <ele>714.0</ele>
      </trkpt>
      <trkpt lat="45.910576" lon="14.518672">
        <time>1970-01-01T00:00:00+00:00</time>
        <ele>712.0</ele>
      </trkpt>
      <trkpt lat="45.910563" lon="14.518827">
        <time>1970-01-01T00:00:00+00:00</time>
        <ele>712.0</ele>
      </trkpt>
      <trkpt lat="45.910489" lon="14.518993">
        <time>1970-01-01T00:00:00+00:00</time>
        <ele>712.0</ele>
      </trkpt>
      <trkpt lat="45.910348" lon="14.519136">
        <time>1970-01-01T00:00:00+00:00</time>
        <ele>714.0</ele>
      </trkpt>
      <trkpt lat="45.910245" lon="14.51932">
        <time>1970-01-01T00:00:00+00:00</time>
        <ele>712.0</ele>
      </trkpt>
      <trkpt lat="45.910214" lon="14.519563">
        <time>1970-01-01T00:00:00+00:00</time>
        <ele>709.0</ele>
      </trkpt>
      <trkpt lat="45.910284" lon="14.519729">
        <time>1970-01-01T00:00:00+00:00</time>
        <ele>707.0</ele>
      </trkpt>
      <trkpt lat="45.91041" lon="14.520193">
        <time>1970-01-01T00:00:00+00:00</time>
        <ele>705.0</ele>
      </trkpt>
      <trkpt lat="45.910319" lon="14.520568">
        <time>1970-01-01T00:00:00+00:00</time>
        <ele>701.0</ele>
      </trkpt>
      <trkpt lat="45.910171" lon="14.520776">
        <time>1970-01-01T00:00:00+00:00</time>
        <ele>698.0</ele>
      </trkpt>
      <trkpt lat="45.910146" lon="14.520877">
        <time>1970-01-01T00:00:00+00:00</time>
        <ele>697.0</ele>
      </trkpt>
      <trkpt lat="45.910204" lon="14.521328">
        <time>1970-01-01T00:00:00+00:00</time>
        <ele>690.0</ele>
      </trkpt>
      <trkpt lat="45.910257" lon="14.521453">
        <time>1970-01-01T00:00:00+00:00</time>
        <ele>688.0</ele>
      </trkpt>
      <trkpt lat="45.910348" lon="14.521548">
        <time>1970-01-01T00:00:00+00:00</time>
        <ele>687.0</ele>
      </trkpt>
      <trkpt lat="45.910481" lon="14.521625">
        <time>1970-01-01T00:00:00+00:00</time>
        <ele>686.0</ele>
      </trkpt>
      <trkpt lat="45.910625" lon="14.521649">
        <time>1970-01-01T00:00:00+00:00</time>
        <ele>684.0</ele>
      </trkpt>
      <trkpt lat="45.910716" lon="14.521631">
        <time>1970-01-01T00:00:00+00:00</time>
        <ele>684.0</ele>
      </trkpt>
      <trkpt lat="45.911109" lon="14.521697">
        <time>1970-01-01T00:00:00+00:00</time>
        <ele>676.0</ele>
      </trkpt>
      <trkpt lat="45.911221" lon="14.521619">
        <time>1970-01-01T00:00:00+00:00</time>
        <ele>673.0</ele>
      </trkpt>
      <trkpt lat="45.911336" lon="14.521637">
        <time>1970-01-01T00:00:00+00:00</time>
        <ele>670.0</ele>
      </trkpt>
      <trkpt lat="45.911444" lon="14.521607">
        <time>1970-01-01T00:00:00+00:00</time>
        <ele>667.0</ele>
      </trkpt>
      <trkpt lat="45.911671" lon="14.521512">
        <time>1970-01-01T00:00:00+00:00</time>
        <ele>660.0</ele>
      </trkpt>
      <trkpt lat="45.911961" lon="14.52118">
        <time>1970-01-01T00:00:00+00:00</time>
        <ele>660.0</ele>
      </trkpt>
      <trkpt lat="45.912089" lon="14.521061">
        <time>1970-01-01T00:00:00+00:00</time>
        <ele>657.0</ele>
      </trkpt>
      <trkpt lat="45.912196" lon="14.521055">
        <time>1970-01-01T00:00:00+00:00</time>
        <ele>653.0</ele>
      </trkpt>
      <trkpt lat="45.912573" lon="14.521174">
        <time>1970-01-01T00:00:00+00:00</time>
        <ele>644.0</ele>
      </trkpt>
      <trkpt lat="45.912684" lon="14.52118">
        <time>1970-01-01T00:00:00+00:00</time>
        <ele>642.0</ele>
      </trkpt>
      <trkpt lat="45.912899" lon="14.521114">
        <time>1970-01-01T00:00:00+00:00</time>
        <ele>640.0</ele>
      </trkpt>
      <trkpt lat="45.913069" lon="14.521156">
        <time>1970-01-01T00:00:00+00:00</time>
        <ele>637.0</ele>
      </trkpt>
      <trkpt lat="45.913205" lon="14.521132">
        <time>1970-01-01T00:00:00+00:00</time>
        <ele>634.0</ele>
      </trkpt>
      <trkpt lat="45.913296" lon="14.521209">
        <time>1970-01-01T00:00:00+00:00</time>
        <ele>632.0</ele>
      </trkpt>
      <trkpt lat="45.913408" lon="14.521352">
        <time>1970-01-01T00:00:00+00:00</time>
        <ele>629.0</ele>
      </trkpt>
      <trkpt lat="45.913635" lon="14.521554">
        <time>1970-01-01T00:00:00+00:00</time>
        <ele>624.0</ele>
      </trkpt>
      <trkpt lat="45.913767" lon="14.521643">
        <time>1970-01-01T00:00:00+00:00</time>
        <ele>622.0</ele>
      </trkpt>
      <trkpt lat="45.913887" lon="14.521643">
        <time>1970-01-01T00:00:00+00:00</time>
        <ele>621.0</ele>
      </trkpt>
      <trkpt lat="45.914429" lon="14.521501">
        <time>1970-01-01T00:00:00+00:00</time>
        <ele>618.0</ele>
      </trkpt>
      <trkpt lat="45.914569" lon="14.521542">
        <time>1970-01-01T00:00:00+00:00</time>
        <ele>616.0</ele>
      </trkpt>
      <trkpt lat="45.91483" lon="14.521673">
        <time>1970-01-01T00:00:00+00:00</time>
        <ele>609.0</ele>
      </trkpt>
      <trkpt lat="45.914993" lon="14.521834">
        <time>1970-01-01T00:00:00+00:00</time>
        <ele>606.0</ele>
      </trkpt>
      <trkpt lat="45.91505" lon="14.521941">
        <time>1970-01-01T00:00:00+00:00</time>
        <ele>604.0</ele>
      </trkpt>
      <trkpt lat="45.91508" lon="14.522073">
        <time>1970-01-01T00:00:00+00:00</time>
        <ele>603.0</ele>
      </trkpt>
      <trkpt lat="45.91508" lon="14.52218">
        <time>1970-01-01T00:00:00+00:00</time>
        <ele>603.0</ele>
      </trkpt>
      <trkpt lat="45.915019" lon="14.522539">
        <time>1970-01-01T00:00:00+00:00</time>
        <ele>600.0</ele>
      </trkpt>
      <trkpt lat="45.914997" lon="14.523017">
        <time>1970-01-01T00:00:00+00:00</time>
        <ele>586.0</ele>
      </trkpt>
      <trkpt lat="45.915023" lon="14.523211">
        <time>1970-01-01T00:00:00+00:00</time>
        <ele>582.0</ele>
      </trkpt>
      <trkpt lat="45.915152" lon="14.523576">
        <time>1970-01-01T00:00:00+00:00</time>
        <ele>578.0</ele>
      </trkpt>
      <trkpt lat="45.915243" lon="14.52374">
        <time>1970-01-01T00:00:00+00:00</time>
        <ele>577.0</ele>
      </trkpt>
      <trkpt lat="45.91529" lon="14.524005">
        <time>1970-01-01T00:00:00+00:00</time>
        <ele>577.0</ele>
      </trkpt>
      <trkpt lat="45.915289" lon="14.524425">
        <time>1970-01-01T00:00:00+00:00</time>
        <ele>579.0</ele>
      </trkpt>
      <trkpt lat="45.915308" lon="14.524594">
        <time>1970-01-01T00:00:00+00:00</time>
        <ele>580.0</ele>
      </trkpt>
      <trkpt lat="45.915424" lon="14.524786">
        <time>1970-01-01T00:00:00+00:00</time>
        <ele>581.0</ele>
      </trkpt>
      <trkpt lat="45.91561" lon="14.524897">
        <time>1970-01-01T00:00:00+00:00</time>
        <ele>582.0</ele>
      </trkpt>
      <trkpt lat="45.91568" lon="14.524962">
        <time>1970-01-01T00:00:00+00:00</time>
        <ele>581.0</ele>
      </trkpt>
      <trkpt lat="45.915774" lon="14.525313">
        <time>1970-01-01T00:00:00+00:00</time>
        <ele>581.0</ele>
      </trkpt>
      <trkpt lat="45.915982" lon="14.526755">
        <time>1970-01-01T00:00:00+00:00</time>
        <ele>576.0</ele>
      </trkpt>
      <trkpt lat="45.916077" lon="14.527274">
        <time>1970-01-01T00:00:00+00:00</time>
        <ele>574.0</ele>
      </trkpt>
      <trkpt lat="45.916245" lon="14.528019">
        <time>1970-01-01T00:00:00+00:00</time>
        <ele>572.0</ele>
      </trkpt>
      <trkpt lat="45.91632" lon="14.528413">
        <time>1970-01-01T00:00:00+00:00</time>
        <ele>570.0</ele>
      </trkpt>
      <trkpt lat="45.916387" lon="14.528674">
        <time>1970-01-01T00:00:00+00:00</time>
        <ele>570.0</ele>
      </trkpt>
      <trkpt lat="45.916578" lon="14.529185">
        <time>1970-01-01T00:00:00+00:00</time>
        <ele>569.0</ele>
      </trkpt>
      <trkpt lat="45.916741" lon="14.529606">
        <time>1970-01-01T00:00:00+00:00</time>
        <ele>571.0</ele>
      </trkpt>
      <trkpt lat="45.91679" lon="14.529737">
        <time>1970-01-01T00:00:00+00:00</time>
        <ele>572.0</ele>
      </trkpt>
      <trkpt lat="45.916869" lon="14.530172">
        <time>1970-01-01T00:00:00+00:00</time>
        <ele>570.0</ele>
      </trkpt>
      <trkpt lat="45.916925" lon="14.530351">
        <time>1970-01-01T00:00:00+00:00</time>
        <ele>570.0</ele>
      </trkpt>
      <trkpt lat="45.917057" lon="14.530545">
        <time>1970-01-01T00:00:00+00:00</time>
        <ele>571.0</ele>
      </trkpt>
      <trkpt lat="45.917194" lon="14.53064">
        <time>1970-01-01T00:00:00+00:00</time>
        <ele>572.0</ele>
      </trkpt>
      <trkpt lat="45.917289" lon="14.530681">
        <time>1970-01-01T00:00:00+00:00</time>
        <ele>573.0</ele>
      </trkpt>
      <trkpt lat="45.917398" lon="14.530795">
        <time>1970-01-01T00:00:00+00:00</time>
        <ele>574.0</ele>
      </trkpt>
      <trkpt lat="45.91743" lon="14.530863">
        <time>1970-01-01T00:00:00+00:00</time>
        <ele>574.0</ele>
      </trkpt>
      <trkpt lat="45.917526" lon="14.531241">
        <time>1970-01-01T00:00:00+00:00</time>
        <ele>573.0</ele>
      </trkpt>
      <trkpt lat="45.917895" lon="14.532302">
        <time>1970-01-01T00:00:00+00:00</time>
        <ele>564.0</ele>
      </trkpt>
      <trkpt lat="45.917993" lon="14.532555">
        <time>1970-01-01T00:00:00+00:00</time>
        <ele>560.0</ele>
      </trkpt>
      <trkpt lat="45.918007" lon="14.532592">
        <time>1970-01-01T00:00:00+00:00</time>
        <ele>560.0</ele>
      </trkpt>
      <trkpt lat="45.91822" lon="14.533174">
        <time>1970-01-01T00:00:00+00:00</time>
        <ele>559.0</ele>
      </trkpt>
      <trkpt lat="45.91824" lon="14.533361">
        <time>1970-01-01T00:00:00+00:00</time>
        <ele>559.0</ele>
      </trkpt>
      <trkpt lat="45.918237" lon="14.533419">
        <time>1970-01-01T00:00:00+00:00</time>
        <ele>559.0</ele>
      </trkpt>
      <trkpt lat="45.91821" lon="14.53374">
        <time>1970-01-01T00:00:00+00:00</time>
        <ele>561.0</ele>
      </trkpt>
      <trkpt lat="45.918194" lon="14.533893">
        <time>1970-01-01T00:00:00+00:00</time>
        <ele>561.0</ele>
      </trkpt>
      <trkpt lat="45.918186" lon="14.534294">
        <time>1970-01-01T00:00:00+00:00</time>
        <ele>561.0</ele>
      </trkpt>
      <trkpt lat="45.918204" lon="14.534877">
        <time>1970-01-01T00:00:00+00:00</time>
        <ele>561.0</ele>
      </trkpt>
      <trkpt lat="45.918225" lon="14.535347">
        <time>1970-01-01T00:00:00+00:00</time>
        <ele>561.0</ele>
      </trkpt>
      <trkpt lat="45.918231" lon="14.535602">
        <time>1970-01-01T00:00:00+00:00</time>
        <ele>562.0</ele>
      </trkpt>
      <trkpt lat="45.918259" lon="14.53578">
        <time>1970-01-01T00:00:00+00:00</time>
        <ele>563.0</ele>
      </trkpt>
      <trkpt lat="45.918296" lon="14.535858">
        <time>1970-01-01T00:00:00+00:00</time>
        <ele>563.0</ele>
      </trkpt>
      <trkpt lat="45.918603" lon="14.536226">
        <time>1970-01-01T00:00:00+00:00</time>
        <ele>563.0</ele>
      </trkpt>
      <trkpt lat="45.918654" lon="14.536328">
        <time>1970-01-01T00:00:00+00:00</time>
        <ele>564.0</ele>
      </trkpt>
      <trkpt lat="45.91869" lon="14.536447">
        <time>1970-01-01T00:00:00+00:00</time>
        <ele>563.0</ele>
      </trkpt>
      <trkpt lat="45.918717" lon="14.536628">
        <time>1970-01-01T00:00:00+00:00</time>
        <ele>564.0</ele>
      </trkpt>
      <trkpt lat="45.918717" lon="14.537161">
        <time>1970-01-01T00:00:00+00:00</time>
        <ele>563.0</ele>
      </trkpt>
      <trkpt lat="45.91875" lon="14.537504">
        <time>1970-01-01T00:00:00+00:00</time>
        <ele>562.0</ele>
      </trkpt>
      <trkpt lat="45.918506" lon="14.53724">
        <time>1970-01-01T00:00:00+00:00</time>
        <ele>566.0</ele>
      </trkpt>
      <trkpt lat="45.918355" lon="14.537104">
        <time>1970-01-01T00:00:00+00:00</time>
        <ele>569.0</ele>
      </trkpt>
      <trkpt lat="45.918073" lon="14.53699">
        <time>1970-01-01T00:00:00+00:00</time>
        <ele>574.0</ele>
      </trkpt>
      <trkpt lat="45.917923" lon="14.536962">
        <time>1970-01-01T00:00:00+00:00</time>
        <ele>576.0</ele>
      </trkpt>
      <trkpt lat="45.917647" lon="14.53699">
        <time>1970-01-01T00:00:00+00:00</time>
        <ele>577.0</ele>
      </trkpt>
      <trkpt lat="45.917507" lon="14.537025">
        <time>1970-01-01T00:00:00+00:00</time>
        <ele>578.0</ele>
      </trkpt>
      <trkpt lat="45.917215" lon="14.537204">
        <time>1970-01-01T00:00:00+00:00</time>
        <ele>581.0</ele>
      </trkpt>
      <trkpt lat="45.916362" lon="14.537948">
        <time>1970-01-01T00:00:00+00:00</time>
        <ele>593.0</ele>
      </trkpt>
      <trkpt lat="45.916239" lon="14.538098">
        <time>1970-01-01T00:00:00+00:00</time>
        <ele>594.0</ele>
      </trkpt>
      <trkpt lat="45.916161" lon="14.538222">
        <time>1970-01-01T00:00:00+00:00</time>
        <ele>595.0</ele>
      </trkpt>
      <trkpt lat="45.916038" lon="14.538524">
        <time>1970-01-01T00:00:00+00:00</time>
        <ele>597.0</ele>
      </trkpt>
      <trkpt lat="45.915971" lon="14.538804">
        <time>1970-01-01T00:00:00+00:00</time>
        <ele>599.0</ele>
      </trkpt>
      <trkpt lat="45.915922" lon="14.539051">
        <time>1970-01-01T00:00:00+00:00</time>
        <ele>601.0</ele>
      </trkpt>
      <trkpt lat="45.915869" lon="14.539356">
        <time>1970-01-01T00:00:00+00:00</time>
        <ele>603.0</ele>
      </trkpt>
      <trkpt lat="45.915847" lon="14.539489">
        <time>1970-01-01T00:00:00+00:00</time>
        <ele>603.0</ele>
      </trkpt>
      <trkpt lat="45.915691" lon="14.540313">
        <time>1970-01-01T00:00:00+00:00</time>
        <ele>606.0</ele>
      </trkpt>
      <trkpt lat="45.915632" lon="14.540536">
        <time>1970-01-01T00:00:00+00:00</time>
        <ele>607.0</ele>
      </trkpt>
      <trkpt lat="45.915535" lon="14.540791">
        <time>1970-01-01T00:00:00+00:00</time>
        <ele>608.0</ele>
      </trkpt>
      <trkpt lat="45.915431" lon="14.540984">
        <time>1970-01-01T00:00:00+00:00</time>
        <ele>609.0</ele>
      </trkpt>
      <trkpt lat="45.915281" lon="14.541198">
        <time>1970-01-01T00:00:00+00:00</time>
        <ele>609.0</ele>
      </trkpt>
      <trkpt lat="45.914986" lon="14.541448">
        <time>1970-01-01T00:00:00+00:00</time>
        <ele>612.0</ele>
      </trkpt>
      <trkpt lat="45.914799" lon="14.541563">
        <time>1970-01-01T00:00:00+00:00</time>
        <ele>614.0</ele>
      </trkpt>
      <trkpt lat="45.914315" lon="14.541796">
        <time>1970-01-01T00:00:00+00:00</time>
        <ele>619.0</ele>
      </trkpt>
      <trkpt lat="45.914054" lon="14.541944">
        <time>1970-01-01T00:00:00+00:00</time>
        <ele>621.0</ele>
      </trkpt>
      <trkpt lat="45.913832" lon="14.542096">
        <time>1970-01-01T00:00:00+00:00</time>
        <ele>624.0</ele>
      </trkpt>
      <trkpt lat="45.913086" lon="14.542632">
        <time>1970-01-01T00:00:00+00:00</time>
        <ele>634.0</ele>
      </trkpt>
      <trkpt lat="45.912206" lon="14.543239">
        <time>1970-01-01T00:00:00+00:00</time>
        <ele>645.0</ele>
      </trkpt>
      <trkpt lat="45.912179" lon="14.543315">
        <time>1970-01-01T00:00:00+00:00</time>
        <ele>646.0</ele>
      </trkpt>
      <trkpt lat="45.912138" lon="14.543486">
        <time>1970-01-01T00:00:00+00:00</time>
        <ele>646.0</ele>
      </trkpt>
      <trkpt lat="45.91218" lon="14.543513">
        <time>1970-01-01T00:00:00+00:00</time>
        <ele>646.0</ele>
      </trkpt>
    </trkseg>
  </trk>
</gpx>
